Find Starlink 4089

NORAD ID: 52831 Int'l Des: 2022-062 Owner: SPXS Country: US Constellation: starlink operational
LEOCIRCULAR

現在のビュー

3D地球を読み込み中...

About Starlink 4089

Starlink 4089 (NORAD 52831) is a starlink constellation satellite (v1.5) launched Jun 17, 2022 by SPXS of US. It operates in LEO, CIRCULAR orbit with a mass of 297.00 kg.

Starlink 4089について

説明を読み込み中...

次回通過

Passes for default location (London). Set your location on the main map for personalized predictions.

高度履歴

Loading altitude history...

軌道要素

1 52831U 22062B 26200.25002315 .00052632 00000-0 23120-2 0 9997
2 52831 53.1609 162.8933 0000928 96.6268 13.6460 15.21434942 5799
Epoch: Jul 19, 2026 • Age: 10 hours

現在のステータス

高度 503.4 km
遠地点 / 近地点 N/A
速度 7.62 km/s
衛星直下点 34.61°N, 139.16°E
打ち上げ日 Jun 17, 2022
運用期間 4 years
タイプ internet

技術仕様

分類 Payload
質量 297.00 kg
乾燥質量 275.00 kg
総質量 297.00 kg
長さ 0.20 m
直径 2.80 m
スパン 9.00 m
形状 Box + pan
製造者 SPXS
バスタイプ Starlink
フェーズステータス In Orbit
所有者/国 SPXS/US

Most Searched